Topeka Forbes, KS

9:34 PM CST on December 08, 2019 (GMT -0600)
Forbes

Weather History for KFOE - November, 2019

Change the Weather History Date:

Thursday, November 14, 2019

  Actual Average Record
Temperature  
Mean Temperature 37 °F -  
Max Temperature 48 °F 53 °F 76 °F (1964)
Min Temperature 26 °F 32 °F 9 °F (1959)
Degree Days  
Heating Degree Days 28    
Moisture  
Dew Point 23 °F    
Average Humidity 62    
Maximum Humidity 85    
Minimum Humidity 33    
Precipitation  
Precipitation 0.00 in - - ()
Sea Level Pressure  
Sea Level Pressure 30.33 in    
Wind  
Wind Speed 6 mph ()    
Max Wind Speed 13 mph    
Max Gust Speed 22 mph    
Visibility 9.9 miles    
Events      
Averages and records for this station are not official NWS values.
T = Trace of Precipitation, MM = Missing Value Source: Averaged Metar Reports

Daily Weather History Graph

Daily Weather History Graph

Search for Another Location

Airport or City:

Astronomy

Nov. 14, 2019 Rise Set
Actual Time 7:04 AM CST 5:09 PM CST
Civil Twilight 6:35 AM CST 5:38 PM CST
Nautical Twilight 6:03 AM CST 6:10 PM CST
Astronomical Twilight 5:31 AM CST 6:41 PM CST
Moon 6:56 PM CST (11/14) 9:00 AM CST (11/14)
Length of Visible Light 11h 02m
Length of Day
10h 05m
Waning Gibbous, 95% of the Moon is Illuminated
Nov 14
Waning Gibbous
Nov 19
Last Quarter
Nov 26
New
Dec 4
First Quarter
Dec 11
Full

Hourly Weather History & Observations

Time (CST) Temp. Windchill Dew Point Humidity Pressure Visibility Wind Dir Wind Speed Gust Speed Precip Events Conditions
12:53 AM 32.0 °F 24.8 °F 21.0 °F 64% 30.18 in 10.0 mi West 8.1 mph - N/A   Scattered Clouds
1:53 AM 34.0 °F 29.8 °F 25.0 °F 70% 30.20 in 10.0 mi NNW 4.6 mph - N/A   Overcast
2:53 AM 36.0 °F 31.1 °F 26.1 °F 67% 30.21 in 10.0 mi NW 5.8 mph - N/A   Overcast
3:53 AM 35.1 °F 29.3 °F 27.0 °F 72% 30.24 in 10.0 mi NW 6.9 mph - N/A   Overcast
4:14 AM 37.0 °F 31.0 °F 28.9 °F 73% 30.23 in 10.0 mi NW 8.1 mph - N/A   Overcast
4:53 AM 37.0 °F 29.8 °F 28.9 °F 73% 30.27 in 10.0 mi NNW 10.4 mph - N/A   Overcast
5:04 AM 37.0 °F 30.4 °F 28.9 °F 73% 30.26 in 10.0 mi NNW 9.2 mph - N/A   Overcast
5:53 AM 34.0 °F 26.6 °F 27.0 °F 75% 30.30 in 10.0 mi NNW 9.2 mph - N/A   Partly Cloudy
6:53 AM 28.0 °F 18.6 °F 24.1 °F 85% 30.32 in 10.0 mi NW 10.4 mph - N/A   Clear
7:53 AM 30.9 °F 22.8 °F 26.1 °F 82% 30.35 in 9.0 mi NNW 9.2 mph - N/A   Clear
8:53 AM 36.0 °F 28.0 °F 25.0 °F 64% 30.38 in 10.0 mi NNW 11.5 mph - N/A   Clear
9:53 AM 39.9 °F 33.4 °F 25.0 °F 55% 30.38 in 10.0 mi NNW 10.4 mph - N/A   Clear
10:53 AM 43.0 °F 36.4 °F 25.0 °F 49% 30.40 in 10.0 mi NNW 12.7 mph - N/A   Clear
11:53 AM 45.0 °F 39.7 °F 23.0 °F 42% 30.38 in 10.0 mi NW 10.4 mph 21.9 mph N/A   Clear
12:53 PM 46.9 °F - 21.9 °F 37% 30.37 in 10.0 mi NNW 10.4 mph - N/A   Clear
2:53 PM 48.0 °F - 19.9 °F 33% 30.34 in 10.0 mi NNW 8.1 mph - N/A   Clear
3:53 PM 48.0 °F - 21.0 °F 34% 30.35 in 10.0 mi NNW 6.9 mph - N/A   Clear
4:53 PM 43.0 °F 38.2 °F 19.9 °F 40% 30.36 in 10.0 mi NNW 8.1 mph - N/A   Clear
5:53 PM 33.1 °F 30.0 °F 19.0 °F 56% 30.39 in 10.0 mi North 3.5 mph - N/A   Clear
6:53 PM 32.0 °F - 19.0 °F 59% 30.40 in 10.0 mi Calm Calm - N/A   Clear
7:53 PM 30.0 °F - 19.0 °F 64% 30.41 in 10.0 mi Calm Calm - N/A   Clear
8:53 PM 27.0 °F - 19.0 °F 72% 30.42 in 9.0 mi Calm Calm - N/A   Clear
9:53 PM 26.1 °F 21.9 °F 19.0 °F 75% 30.41 in 10.0 mi SE 3.5 mph - N/A   Clear
10:53 PM 26.1 °F - 19.0 °F 75% 30.40 in 10.0 mi Calm Calm - N/A   Clear